Weather History for KLAR - February, 2012

Change the Weather History Date:

Sunday, February 19, 2012

  Actual Average Record
Temperature  
Mean Temperature 22 °F 24 °F  
Max Temperature 35 °F 36 °F 59 °F (1958)
Min Temperature 8 °F 13 °F -7 °F (1955)
Degree Days  
Heating Degree Days 43 41  
Month to date heating degree days 884 804  
Since 1 July heating degree days 5737 5819  
Cooling Degree Days 0 0  
Month to date cooling degree days 0 0  
Year to date cooling degree days 0 0  
Moisture  
Dew Point 15 °F    
Average Humidity 71    
Maximum Humidity 92    
Minimum Humidity 50    
Precipitation  
Precipitation T in 0.01 in 0.16 in (1969)
Month to date precipitation 0.27 0.21  
Year to date precipitation 0.43 0.48  
Sea Level Pressure  
Sea Level Pressure 29.68 in    
Wind  
Wind Speed 11 mph (NNW)    
Max Wind Speed 28 mph    
Max Gust Speed 33 mph    
Visibility 6 miles    
Events Fog , Snow    
T = Trace of Precipitation, MM = Missing Value Source: NWS Daily Summary

Daily Weather History Graph

Daily Weather History Graph

Search for Another Location

Airport or City:

Trip Planner

Search our weather history database for the weather conditions in past years. The results will help you decide how hot, cold, wet, or windy it might be!

Date:

Astronomy

Feb. 19, 2012 Rise Set
Actual Time 6:52 AM MST 5:41 PM MST
Civil Twilight 6:24 AM MST 6:09 PM MST
Nautical Twilight 5:52 AM MST 6:41 PM MST
Astronomical Twilight 5:20 AM MST 7:13 PM MST
Moon 5:16 AM MST (2/19) 3:44 PM MST (2/19)
Length of Visible Light 11h 44m
Length of Day
10h 48m
Waning Crescent, 5% of the Moon is Illuminated
Feb 19
Waning Crescent
Feb 21
New
Feb 29
First Quarter
Mar 8
Full
Mar 14
Last Quarter

Hourly Weather History & Observations

Time (MST) Temp. Windchill Dew Point Humidity Pressure Visibility Wind Dir Wind Speed Gust Speed Precip Events Conditions
12:53 AM 24.1 °F 13.1 °F 9.0 °F 53% 29.86 in 10.0 mi WSW 11.5 mph - N/A   Clear
1:53 AM 21.0 °F 7.6 °F 6.1 °F 53% 29.84 in 10.0 mi WSW 15.0 mph - N/A   Clear
2:53 AM 15.1 °F 9.4 °F 3.0 °F 59% 29.88 in 10.0 mi SSW 3.5 mph - N/A   Clear
3:53 AM 14.0 °F 2.9 °F 1.9 °F 59% 29.86 in 10.0 mi South 8.1 mph - N/A   Clear
4:53 AM 9.0 °F -0.9 °F -0.0 °F 67% 29.91 in 10.0 mi ESE 5.8 mph - N/A   Clear
5:53 AM 10.9 °F -0.8 °F 1.0 °F 64% 29.90 in 10.0 mi ESE 8.1 mph - N/A   Clear
6:53 AM 10.0 °F -2.9 °F 1.0 °F 67% 29.89 in 10.0 mi SE 9.2 mph - N/A   Clear
7:53 AM 15.1 °F 6.4 °F 1.9 °F 56% 29.81 in 10.0 mi Variable 5.8 mph - N/A   Clear
8:53 AM 12.0 °F 4.1 °F 1.9 °F 64% 29.84 in 10.0 mi WSW 4.6 mph - N/A   Clear
9:53 AM 16.0 °F 10.4 °F 5.0 °F 62% 29.79 in 10.0 mi West 3.5 mph - N/A   Clear
10:53 AM 27.0 °F 20.5 °F 14.0 °F 58% 29.71 in 10.0 mi SE 5.8 mph - N/A   Mostly Cloudy
11:53 AM 27.0 °F 20.5 °F 17.1 °F 66% 29.68 in 10.0 mi NNW 5.8 mph - N/A   Partly Cloudy
12:53 PM 34.0 °F 31.0 °F 19.0 °F 54% 29.60 in 10.0 mi Variable 3.5 mph - N/A   Overcast
1:53 PM 28.0 °F 20.8 °F 19.0 °F 69% 29.62 in 10.0 mi North 6.9 mph - N/A   Overcast
2:53 PM 27.0 °F 21.6 °F 15.1 °F 61% 29.65 in 10.0 mi North 4.6 mph - N/A   Overcast
3:53 PM 24.1 °F 12.0 °F 16.0 °F 71% 29.67 in 10.0 mi NW 13.8 mph - N/A   Overcast
4:53 PM 26.1 °F 19.4 °F 18.0 °F 71% 29.68 in 10.0 mi NE 5.8 mph - N/A   Overcast
5:51 PM 23.0 °F 13.1 °F 21.2 °F 93% 29.57 in 2.5 mi NNW 9.2 mph - 0.00 in Snow Light Snow
5:53 PM 23.0 °F 13.9 °F 21.0 °F 92% 29.70 in 2.5 mi NNW 8.1 mph - 0.00 in Snow Light Snow
6:04 PM 23.0 °F 11.7 °F 21.2 °F 93% 29.57 in 1.5 mi NNW 11.5 mph - 0.00 in Snow Light Snow
6:13 PM 23.0 °F 15.8 °F 21.2 °F 93% 29.57 in 3.0 mi NNW 5.8 mph - 0.00 in Snow Light Snow
6:32 PM 23.0 °F 15.8 °F 21.2 °F 93% 29.56 in 2.0 mi NNW 5.8 mph - 0.00 in Snow Light Snow
6:53 PM 21.9 °F 11.7 °F 19.9 °F 92% 29.70 in 6.0 mi NW 9.2 mph - 0.00 in Snow Light Snow
7:02 PM 21.2 °F 11.7 °F 19.4 °F 93% 29.56 in 10.0 mi NNW 8.1 mph - N/A   Mostly Cloudy
7:27 PM 19.4 °F 9.5 °F 19.4 °F 100% 29.56 in 10.0 mi NNW 8.1 mph - N/A   Mostly Cloudy
7:39 PM 21.2 °F 10.9 °F 19.4 °F 93% 29.56 in 10.0 mi NNW 9.2 mph - N/A   Overcast
7:53 PM 21.9 °F 11.0 °F 19.9 °F 92% 29.67 in 10.0 mi NNW 10.4 mph - N/A   Overcast
8:48 PM 21.2 °F 7.8 °F 19.4 °F 93% 29.56 in 1.8 mi NW 15.0 mph - 0.00 in Snow Light Snow
8:53 PM 21.9 °F 9.2 °F 21.0 °F 96% 29.70 in 1.2 mi NNW 13.8 mph - 0.00 in Snow Light Snow
9:23 PM 21.2 °F 8.9 °F 21.2 °F 100% 29.56 in 1.5 mi NNW 12.7 mph - 0.00 in Snow Light Snow
9:35 PM 21.2 °F 6.8 °F 21.2 °F 100% 29.57 in 2.5 mi North 17.3 mph - 0.00 in Snow Light Snow
9:45 PM 21.2 °F 6.0 °F 21.2 °F 100% 29.57 in 1.8 mi North 19.6 mph 26.5 mph 0.00 in Snow Light Snow
9:53 PM 21.0 °F 6.2 °F 19.0 °F 92% 29.68 in 1.2 mi North 18.4 mph - 0.00 in Snow Light Snow
10:14 PM 19.4 °F 3.2 °F 17.6 °F 93% 29.58 in 1.0 mi NNW 20.7 mph - 0.00 in Snow Light Snow
10:24 PM 19.4 °F 4.5 °F 17.6 °F 93% 29.58 in 0.5 mi NNW 17.3 mph 25.3 mph 0.00 in Fog , Snow Snow
10:53 PM 19.0 °F 2.4 °F 17.1 °F 92% 29.66 in 1.0 mi NW 21.9 mph - 0.00 in Snow Light Snow
11:16 PM 19.4 °F 2.8 °F 17.6 °F 93% 29.59 in 0.8 mi NW 21.9 mph 29.9 mph 0.00 in Snow Light Snow
11:33 PM 17.6 °F -1.0 °F 15.8 °F 93% 29.59 in 0.8 mi NW 26.5 mph - 0.00 in Snow Light Snow
11:53 PM 18.0 °F -0.2 °F 16.0 °F 92% 29.68 in 1.0 mi NW 25.3 mph 33.4 mph 0.00 in Snow Light Snow